EW5319 Weather Reports


time (UTC)temp
C
wind
direction
speed
KPH
gust
KPH
rain 1hr
cm
rain 24hr
cm
rain mn
cm
humidity
%
barometer
mb
20260508040023 8 218 3.2 6.4 0.00 0.00 0.00 57 1006.0
20260508035023 7 232 1.6 4.8 0.00 0.00 0.00 57 1005.9
20260508034022 7 198 1.6 4.8 0.00 0.00 0.00 57 1006.0
20260508033051 7 198 1.6 4.8 0.00 0.00 0.00 57 1006.1
20260508032110 7 203 1.6 1.6 0.00 0.00 0.00 58 1006.0
20260508031049 7 0.0 0.0 0.00 0.00 0.00 58 1006.0
20260508030019 7 0.0 0.0 0.00 0.00 0.00 60 1006.0
20260508025128 7 0.0 0.0 0.00 0.00 0.00 60 1006.3
20260508024237 7 0.0 0.0 0.00 0.00 0.00 61 1006.2
20260508023046 7 0.0 0.0 0.00 0.00 0.00 61 1006.2
20260508022355 8 0.0 0.0 0.00 0.00 0.00 61 1006.3
20260508021414 8 0.0 0.0 0.00 0.00 0.00 61 1006.0
20260508020043 8 0.0 0.0 0.00 0.00 0.00 61 1006.0
20260508015102 8 203 1.6 4.8 0.00 0.00 0.00 61 1005.8
20260508014041 9 180 1.6 4.8 0.00 0.00 0.00 61 1005.9
20260508013040 10 180 1.6 1.6 0.00 0.00 0.00 61 1005.8
20260508012039 10 228 1.6 4.8 0.00 0.00 0.00 60 1005.9
20260508011058 10 213 1.6 6.4 0.00 0.00 0.00 60 1005.6
20260508010038 10 232 3.2 11.3 0.00 0.00 0.00 60 1005.9
20260508005037 10 247 4.8 6.4 0.00 0.00 0.00 59 1005.8
20260508004036 11 238 4.8 8.0 0.00 0.00 0.00 59 1005.7
20260508003035 11 227 4.8 12.9 0.00 0.00 0.00 58 1005.7
20260508002055 11 243 6.4 12.9 0.00 0.00 0.00 57 1005.6
20260508001034 11 241 4.8 12.9 0.00 0.00 0.00 57 1005.6
20260508000033 11 230 6.4 11.3 0.00 0.00 0.00 57 1005.6
20260507235033 11 245 4.8 11.3 0.00 0.00 0.00 57 1005.3
20260507234032 11 231 9.7 19.3 0.00 0.00 0.00 56 1005.3
20260507233031 12 258 6.4 19.3 0.00 0.00 0.00 56 1005.3
20260507232141 12 221 8.0 22.5 0.00 0.00 0.00 55 1005.4
20260507231030 12 227 8.0 22.5 0.00 0.00 0.00 55 1005.4
20260507230029 12 224 6.4 16.1 0.00 0.00 0.00 54 1005.4
20260507225028 12 235 11.3 22.5 0.00 0.00 0.00 54 1005.6
20260507224057 12 237 11.3 25.7 0.00 0.00 0.00 55 1005.7
20260507223057 12 229 8.0 19.3 0.00 0.00 0.00 55 1005.4
20260507222026 12 246 9.7 24.1 0.00 0.00 0.00 54 1005.6
20260507221025 13 235 9.7 24.1 0.00 0.00 0.00 54 1005.5
20260507220024 13 217 8.0 24.1 0.00 0.00 0.00 53 1005.5
20260507215053 13 223 8.0 22.5 0.00 0.00 0.00 54 1005.4
20260507214053 13 222 9.7 22.5 0.00 0.00 0.00 54 1005.3
20260507213212 13 228 4.8 19.3 0.00 0.00 0.00 54 1005.3
20260507212101 13 229 9.7 22.5 0.00 0.00 0.00 54 1005.2
20260507211050 13 225 14.5 22.5 0.00 0.00 0.00 54 1005.0
20260507210049 13 272 3.2 11.3 0.00 0.00 0.00 55 1005.1
20260507205108 12 223 9.7 16.1 0.00 0.00 0.00 54 1004.9
20260507204047 13 227 6.4 12.9 0.00 0.00 0.00 53 1005.1
20260507203107 13 263 6.4 16.1 0.00 0.00 0.00 53 1005.3
20260507202045 13 284 9.7 16.1 0.00 0.00 0.00 53 1005.0
20260507201044 13 241 8.0 22.5 0.00 0.00 0.00 53 1005.1
20260507200103 14 243 6.4 16.1 0.00 0.00 0.00 53 1005.3
20260507195043 14 266 4.8 17.7 0.00 0.00 0.00 54 1005.4
20260507194042 13 204 3.2 11.3 0.00 0.00 0.00 54 1005.4
20260507193041 13 238 6.4 12.9 0.00 0.00 0.00 54 1005.4
20260507192040 13 290 3.2 11.3 0.00 0.00 0.00 55 1005.7
20260507191040 13 336 4.8 11.3 0.00 0.00 0.00 55 1005.7
20260507190039 13 269 6.4 12.9 0.00 0.00 0.00 55 1005.7
20260507185038 13 287 4.8 12.9 0.00 0.00 0.00 57 1005.8
20260507184036 13 294 3.2 12.9 0.00 0.00 0.00 57 1005.9
20260507183036 13 315 4.8 11.3 0.00 0.00 0.00 58 1006.0
20260507182035 13 232 9.7 17.7 0.00 0.00 0.00 57 1006.1
20260507181104 13 193 4.8 8.0 0.00 0.00 0.00 57 1006.1
20260507180034 13 251 6.4 12.9 0.00 0.00 0.00 55 1005.8
20260507175033 13 311 4.8 12.9 0.00 0.00 0.00 56 1005.9
20260507174032 13 328 4.8 12.9 0.00 0.00 0.00 55 1006.0
20260507173052 13 292 4.8 11.3 0.00 0.00 0.00 56 1006.1
20260507172101 13 256 6.4 16.1 0.00 0.00 0.00 56 1006.0
20260507171030 13 294 4.8 8.0 0.00 0.00 0.00 56 1005.9
20260507170029 13 263 4.8 8.0 0.00 0.00 0.00 58 1006.1
20260507165058 13 253 4.8 17.7 0.00 0.00 0.00 59 1006.0
20260507164028 13 319 8.0 17.7 0.00 0.00 0.00 59 1006.0
20260507163027 13 316 3.2 6.4 0.00 0.00 0.00 59 1006.2
20260507162226 13 239 4.8 11.3 0.00 0.00 0.00 59 1006.1
20260507161055 13 248 4.8 12.9 0.00 0.00 0.00 59 1006.2
20260507160055 13 25 3.2 6.4 0.00 0.00 0.00 58 1006.0
20260507155044 13 353 4.8 11.3 0.00 0.00 0.00 58 1006.1
20260507154023 12 332 4.8 12.9 0.00 0.00 0.00 58 1006.1
20260507153052 12 331 4.8 11.3 0.00 0.00 0.00 59 1006.2
20260507152050 12 347 4.8 12.9 0.00 0.00 0.00 55 1006.1
20260507151050 12 333 3.2 8.0 0.00 0.00 0.00 51 1006.2
20260507150019 12 260 6.4 12.9 0.00 0.00 0.00 50 1006.1
20260507145118 12 266 4.8 12.9 0.00 0.00 0.00 51 1006.1
20260507144047 12 273 3.2 11.3 0.00 0.00 0.00 50 1006.1
20260507143116 12 240 4.8 11.3 0.00 0.00 0.00 51 1006.1
20260507142126 12 298 3.2 8.0 0.00 0.00 0.00 50 1006.2
20260507141114 12 231 3.2 11.3 0.00 0.00 0.00 47 1006.1
20260507140044 11 207 4.8 8.0 0.00 0.00 0.00 46 1006.1
20260507135043 11 253 4.8 12.9 0.00 0.00 0.00 46 1006.5
20260507134042 11 255 3.2 11.3 0.00 0.00 0.00 43 1006.4
20260507133041 11 224 4.8 11.3 0.00 0.00 0.00 42 1006.4
20260507132101 11 237 3.2 8.0 0.00 0.00 0.00 42 1006.4
20260507131130 10 247 6.4 16.1 0.00 0.00 0.00 42 1006.4
20260507130039 10 221 3.2 16.1 0.00 0.00 0.00 43 1006.3
20260507125038 10 226 4.8 11.3 0.00 0.00 0.00 42 1006.2
20260507124038 9 224 6.4 12.9 0.00 0.00 0.00 40 1006.3
20260507123037 8 224 4.8 11.3 0.00 0.00 0.00 36 1006.4
20260507122037 8 210 3.2 6.4 0.00 0.00 0.00 36 1006.3
20260507121056 7 237 3.2 8.0 0.00 0.00 0.00 34 1006.3
20260507120035 7 194 1.6 4.8 0.00 0.00 0.00 33 1006.2
20260507115105 7 189 0.0 4.8 0.00 0.00 0.00 33 1006.3
20260507114104 7 194 3.2 6.4 0.00 0.00 0.00 35 1006.4
20260507113053 6 198 1.6 4.8 0.00 0.00 0.00 36 1006.3
20260507112202 6 180 0.0 4.8 0.00 0.00 0.00 38 1006.1
20260507111102 6 216 1.6 1.6 0.00 0.00 0.00 38 1006.0
20260507110031 6 187 1.6 4.8 0.00 0.00 0.00 37 1006.0
20260507105100 6 190 1.6 6.4 0.00 0.00 0.00 37 1005.6
20260507104029 6 208 1.6 6.4 0.00 0.00 0.00 37 1005.7
20260507103028 6 203 1.6 4.8 0.00 0.00 0.00 38 1005.9
20260507102128 6 203 1.6 4.8 0.00 0.00 0.00 38 1005.8
20260507101027 6 198 1.6 4.8 0.00 0.00 0.00 38 1005.5
20260507100026 6 195 1.6 4.8 0.00 0.00 0.00 38 1005.6
20260507095046 6 193 3.2 6.4 0.00 0.03 0.00 37 1005.5
20260507094025 6 211 3.2 8.0 0.00 0.05 0.00 37 1005.7
20260507093123 6 189 3.2 8.0 0.00 0.05 0.00 37 1005.7
20260507092022 6 201 3.2 6.4 0.00 0.05 0.00 37 1005.7
20260507091251 6 213 3.2 6.4 0.00 0.08 0.00 37 1005.6
20260507090050 6 189 1.6 4.8 0.00 0.08 0.00 37 1005.9
20260507085049 6 175 1.6 6.4 0.00 0.10 0.00 38 1005.9
20260507084048 6 175 1.6 6.4 0.00 0.13 0.00 40 1005.9
20260507083018 6 238 1.6 4.8 0.00 0.15 0.00 42 1005.7
20260507082047 6 173 1.6 4.8 0.00 0.18 0.00 42 1005.7
20260507081115 6 161 1.6 11.3 0.00 0.20 0.00 42 1006.0
20260507080044 6 102 0.0 4.8 0.00 0.23 0.00 42 1005.9
20260507075043 6 234 1.6 6.4 0.00 0.25 0.00 42 1005.9
20260507074042 6 188 1.6 6.4 0.00 0.28 0.00 42 1005.8
20260507073042 6 211 1.6 4.8 0.00 0.28 0.00 42 1005.9
20260507072111 6 216 1.6 4.8 0.00 0.30 0.00 42 1005.7
20260507071040 6 207 1.6 6.4 0.00 0.30 0.00 43 1006.2
20260507070039 5 228 1.6 4.8 0.00 0.30 0.00 44 1006.1
20260507065039 5 218 1.6 4.8 0.00 0.30 0.00 45 1006.0
20260507064038 5 176 1.6 1.6 0.00 0.30 0.00 46 1006.1
20260507063037 5 225 1.6 4.8 0.00 0.30 0.00 47 1006.4
20260507062037 5 188 1.6 4.8 0.00 0.30 0.00 48 1006.4
20260507061036 5 194 1.6 4.8 0.00 0.33 0.00 48 1006.4
20260507060035 5 188 1.6 6.4 0.00 0.33 0.00 49 1006.4
20260507055054 5 195 1.6 4.8 0.00 0.33 0.00 49 1006.4
20260507054033 5 183 1.6 4.8 0.00 0.36 0.00 51 1006.7
20260507053032 6 181 1.6 4.8 0.00 0.38 0.00 52 1006.6
20260507052221 6 135 0.0 1.6 0.00 0.38 0.00 52 1006.7
20260507051101 6 0.0 0.0 0.00 0.41 0.00 52 1006.9
20260507050100 6 0.0 0.0 0.00 0.41 0.00 52 1007.1
20260507045129 6 0.0 0.0 0.00 0.41 0.00 52 1007.2
20260507044058 6 140 1.6 4.8 0.00 0.41 0.00 53 1007.1
20260507043028 7 203 0.0 1.6 0.00 0.43 0.00 53 1007.1
20260507042117 7 135 0.0 1.6 0.00 0.43 0.00 53 1007.2
20260507041416 7 141 1.6 1.6 0.00 0.43 0.00 54 1007.1